Weather in Komsomolskoye

Russia / Saratov Oblast     51°37′01″N   48°01′00″E
temp.,
°C
wind,
m/s
gust,
m/s
humid.,
%
clouds,
%
prec.,
mm/h
press.,
hPa
HPBL,
m
20 april, tue
tue2001:00+5e81384100 0.4 1021598
04:00+4e81487100 2.4 1021606
07:00+4e91578100 0.8 1022674
10:00+4ese91576100 1.2 1023640
13:00+4e91669100 0.3 1023721
16:00+8ese81561100 0.3 1022962
19:00+9ese101758100 0.0 1020910
22:00+8ese101855100 0.2 1020787
21 april, wed
wed2101:00+6se111966100 0.8 1020708
04:00+4se122178100 2.5 1020586
07:00+4se122172100 1.1 1020681
10:00+4se111979100 1.6 1020709
13:00+3sse101889100 0.6 1021718
16:00+3sse91692100 8.6 1021622
19:00+4sse91590100 0.5 1022562
22:00+4sse71395100 1.1 1022419
22 april, thu
thu2201:00+5sse61194100 0.0 1022338
04:00+5sse5109367 0.0 1023235
07:00+5sse5108899 0.0 1024299
10:00+10sse576581 0.0 1024505
13:00+14sse555697 0.0 1024996
16:00+12se6657100 0.0 1024879
19:00+10se576976 0.0 1025519
22:00+6se47865 0.0 1025178
23 april, fri
fri2301:00+5se36966 0.0 1025159
04:00+4ese3396100 0.0 102578
07:00+5ene2491100 0.0 1025138
10:00+10ne4674100 0.0 1024492
13:00+14ne5660100 0.0 10231054
16:00+14ene5660100 0.0 10221437
19:00+12ene3668100 0.0 1021318
22:00+9se3674100 0.0 1021195
24 april, sat
sat2401:00+8e2387100 0.0 101996
04:00+7ne2391100 0.0 1018106
07:00+7nne2488100 0.0 1017210
10:00+10nnw336999 0.0 10161002
13:00+12nw135997 0.1 10151080
16:00+15ssw1448100 0.1 10141293
19:00+12sse3667100 0.0 1013139
22:00+10s4883100 0.1 1012127